THORAD AGENA D DEB, 4652

Orbit data source: Space-Track

THORAD AGENA D DEB, 4652 is space debris in SSO originally from a launch on Wed, 08 Apr 1970 UTC launched from the Air Force Western Test Range (AFWTR). Debris objects in space refer to the collection of defunct objects orbiting the Earth. Examples of debris include non-operational satellites, rocket bodies, and fragments generated from explosions, collisions, or faulty payload assembly.

Loading next visibility...
Identifier
4652, 1970-025AL
Orbit
SSO
Country
Flag of USUS
Related business
Manufacturer
Unknown
Mission
Spacecraft
Bus & Motor
Unknown
Mass
Unknown
Launch date (UTC)
1970-04-08 (56 years ago)
Launch vehicle
Unknown
Launch site
Air Force Western Test Range (AFWTR)
Object type
Payload
Rocket body
Debris
Shape & HBR
Unknown shape, 0.1 m
Radar Cross Section
Small (<0.1 m²)

Expand to show TLE details & history
Last TLE update: 2 days ago

TLE from 2 days ago
0 THORAD AGENA D DEB
1 04652U 70025AL  26061.33621310  .00001292  00000-0  10726-2 0  9997
2 04652  99.6055 212.1795 0031980 147.9394 281.4648 13.90463146802378
Epoch: 2026-03-02T08:04Z
TLE epoch observation values (Epoch: 2026-03-02T08:04:08.811Z)
Latitude
67.12268°
Longitude
-92.50303°
Altitude
933.975 km
Speed
7.393 km/s
True Right ascension
12h 34m 39s
True Declination
67° 00' 08"
Sunlit
Object was in daylight at epoch
Visualization orbit readout
Latitude
Unknown
Longitude
Unknown
Altitude
Unknown
Speed
Unknown
Apparent Right ascension
Unknown
Apparent Declination
Unknown
Sunlit
N/A
Visualization observer readout
Local Sidereal Time
19:45:50
Azimuth
Unknown
Elevation
Unknown
Doppler factor
Unknown
Orbital elements
Apogee altitude
947.604 km
Perigee altitude
900.898 km
Semi-major axis
7,302.388 km
Eccentricity
0.0032
Inclination
99.6055°
RAAN
212.1795°
Arg. of periapsis
147.9394°
True anomaly
281.10537°
Mean anomaly
281.4648°
Eccentric anomaly
281.28511°
Mean motion
3.47813 °/min
Orbital period
103.5 mins
BSTAR
0.0010726

Documentation

Showing up to 5 results
|